DKH8185 ZSNJ-ZGGG

Flight info

Callsign DKH8185
Flight time 1h 45m
Altitude 38100
Route HFE71X HFE H2 P262 DCT KHN DCT RUNEK W19 OLPAB OLPAB1
Aircraft A20N/M-SDE2E3FGHIRWXY/LB1

Departure

Time 2026-05-08 05:00
Airport Nanjing Lukou International Airport (ZSNJ)

Arrival

Time 2026-05-08 06:46
Airport Guangzhou Baiyun International Airport (ZGGG)
Time Latitude Longitude Altitude Speed Heading
2026-05-08 04:31 31.73458 118.87507 57 ft 0 kts 149°
2026-05-08 04:46 31.73460 118.87506 57 ft 1 kts 149°
2026-05-08 04:46 31.73472 118.87497 57 ft 2 kts 148°
2026-05-08 04:46 31.73485 118.87489 57 ft 2 kts 149°
2026-05-08 04:47 31.73496 118.87481 57 ft 0 kts 148°
2026-05-08 04:47 31.73506 118.87472 57 ft 2 kts 122°
2026-05-08 04:47 31.73510 118.87456 57 ft 2 kts 90°
2026-05-08 04:47 31.73508 118.87441 57 ft 0 kts 62°
2026-05-08 04:48 31.73504 118.87434 57 ft 1 kts 57°
2026-05-08 04:48 31.73503 118.87433 57 ft 0 kts 57°
2026-05-08 04:50 31.73509 118.87444 57 ft 3 kts 58°
2026-05-08 04:50 31.73527 118.87478 57 ft 6 kts 58°
2026-05-08 04:50 31.73578 118.87576 57 ft 13 kts 59°
2026-05-08 04:50 31.73615 118.87643 57 ft 9 kts 57°
2026-05-08 04:51 31.73622 118.87686 57 ft 7 kts 111°
2026-05-08 04:51 31.73571 118.87735 57 ft 12 kts 148°
2026-05-08 04:51 31.73483 118.87799 57 ft 17 kts 147°
2026-05-08 04:51 31.73369 118.87884 57 ft 18 kts 147°
2026-05-08 04:52 31.73291 118.87879 57 ft 13 kts 237°
2026-05-08 04:52 31.73235 118.87775 57 ft 16 kts 237°
2026-05-08 04:52 31.73170 118.87656 57 ft 18 kts 237°
2026-05-08 04:52 31.73099 118.87521 57 ft 20 kts 237°
2026-05-08 04:53 31.73021 118.87375 57 ft 22 kts 237°
2026-05-08 04:53 31.72943 118.87231 57 ft 18 kts 238°
2026-05-08 04:53 31.72847 118.87050 57 ft 20 kts 237°
2026-05-08 04:53 31.72798 118.86958 57 ft 17 kts 238°
2026-05-08 04:54 31.72730 118.86829 57 ft 19 kts 239°
2026-05-08 04:54 31.72655 118.86691 57 ft 21 kts 238°
2026-05-08 04:54 31.72573 118.86539 57 ft 21 kts 238°
2026-05-08 04:54 31.72496 118.86394 57 ft 21 kts 238°
2026-05-08 04:55 31.72414 118.86240 57 ft 22 kts 238°
2026-05-08 04:55 31.72327 118.86076 57 ft 24 kts 238°
2026-05-08 04:55 31.72236 118.85906 57 ft 25 kts 238°
2026-05-08 04:55 31.72149 118.85745 57 ft 22 kts 237°
2026-05-08 04:56 31.72066 118.85587 57 ft 22 kts 239°
2026-05-08 04:56 31.71984 118.85436 57 ft 21 kts 238°
2026-05-08 04:56 31.71904 118.85287 56 ft 21 kts 238°
2026-05-08 04:56 31.71825 118.85139 57 ft 21 kts 238°
2026-05-08 04:57 31.71749 118.84996 57 ft 20 kts 237°
2026-05-08 04:57 31.71672 118.84850 57 ft 20 kts 237°
2026-05-08 04:57 31.71615 118.84772 57 ft 10 kts 196°
2026-05-08 04:57 31.71549 118.84804 57 ft 10 kts 148°
2026-05-08 04:58 31.71534 118.84815 57 ft 0 kts 148°
2026-05-08 04:58 31.71528 118.84819 57 ft 2 kts 148°
2026-05-08 04:58 31.71511 118.84832 57 ft 4 kts 148°
2026-05-08 04:58 31.71476 118.84857 57 ft 8 kts 148°
2026-05-08 04:59 31.71424 118.84910 57 ft 10 kts 111°
2026-05-08 04:59 31.71435 118.84969 56 ft 0 kts 58°
2026-05-08 04:59 31.71450 118.84998 56 ft 24 kts 58°
2026-05-08 04:59 31.71687 118.85441 57 ft 100 kts 57°
2026-05-08 05:00 31.72174 118.86346 58 ft 160 kts 58°
2026-05-08 05:00 31.72837 118.87556 354 ft 185 kts 60°
2026-05-08 05:00 31.73530 118.88876 943 ft 199 kts 60°
2026-05-08 05:00 31.74245 118.90337 1570 ft 216 kts 61°
2026-05-08 05:01 31.75031 118.91869 2378 ft 223 kts 59°
2026-05-08 05:01 31.75868 118.93402 3176 ft 229 kts 58°
2026-05-08 05:01 31.76721 118.94969 4037 ft 231 kts 58°
2026-05-08 05:01 31.77570 118.96547 4883 ft 234 kts 58°
2026-05-08 05:02 31.78442 118.98182 5735 ft 237 kts 58°
2026-05-08 05:02 31.79307 118.99824 6580 ft 240 kts 60°
2026-05-08 05:02 31.79800 119.01686 7341 ft 247 kts 87°
2026-05-08 05:02 31.79444 119.03657 8081 ft 258 kts 115°
2026-05-08 05:03 31.78252 119.05278 8794 ft 269 kts 146°
2026-05-08 05:03 31.76471 119.06002 9494 ft 276 kts 178°
2026-05-08 05:03 31.74628 119.05555 10197 ft 277 kts 211°
2026-05-08 05:03 31.73208 119.04095 10956 ft 275 kts 233°
2026-05-08 05:04 31.71993 119.02350 11720 ft 277 kts 233°
2026-05-08 05:04 31.70752 119.00610 12490 ft 279 kts 232°
2026-05-08 05:04 31.69300 118.99103 13210 ft 287 kts 210°
2026-05-08 05:04 31.67377 118.98515 13938 ft 295 kts 182°
2026-05-08 05:05 31.65337 118.99013 14433 ft 311 kts 154°
2026-05-08 05:05 31.63480 119.00491 14791 ft 330 kts 144°
2026-05-08 05:05 31.61614 119.02172 15107 ft 347 kts 144°
2026-05-08 05:05 31.59647 119.03910 15405 ft 364 kts 145°
2026-05-08 05:06 31.57553 119.05727 15697 ft 381 kts 145°
2026-05-08 05:06 31.55409 119.07602 16048 ft 394 kts 145°
2026-05-08 05:06 31.53195 119.09548 16625 ft 399 kts 145°
2026-05-08 05:06 31.50989 119.11486 17243 ft 403 kts 145°
2026-05-08 05:07 31.48735 119.13465 17837 ft 407 kts 146°
2026-05-08 05:07 31.46450 119.15468 18417 ft 411 kts 146°
2026-05-08 05:07 31.44133 119.17497 18961 ft 415 kts 147°
2026-05-08 05:07 31.41812 119.19523 19490 ft 419 kts 147°
2026-05-08 05:08 31.39490 119.21551 20014 ft 423 kts 147°
2026-05-08 05:08 31.37114 119.23624 20537 ft 427 kts 147°
2026-05-08 05:08 31.34709 119.25723 21063 ft 430 kts 148°
2026-05-08 05:08 31.32239 119.27874 21628 ft 433 kts 148°
2026-05-08 05:09 31.29766 119.30028 22150 ft 436 kts 148°
2026-05-08 05:09 31.27317 119.32159 22633 ft 440 kts 148°
2026-05-08 05:09 31.24808 119.34341 23157 ft 444 kts 148°
2026-05-08 05:09 31.22320 119.36503 23667 ft 447 kts 148°
2026-05-08 05:10 31.19812 119.38679 24177 ft 450 kts 148°
2026-05-08 05:10 31.14769 119.43078 25186 ft 456 kts 148°
2026-05-08 05:10 31.12189 119.45332 25685 ft 458 kts 148°
2026-05-08 05:11 31.09636 119.47562 26141 ft 461 kts 148°
2026-05-08 05:11 31.07047 119.49823 26598 ft 464 kts 148°
2026-05-08 05:11 31.04453 119.52088 27046 ft 467 kts 148°
2026-05-08 05:11 31.01867 119.54341 27471 ft 470 kts 148°
2026-05-08 05:12 30.99228 119.56641 27879 ft 472 kts 148°
2026-05-08 05:12 30.96590 119.58937 28292 ft 474 kts 148°
2026-05-08 05:12 30.93943 119.61237 28657 ft 477 kts 148°
2026-05-08 05:12 30.91286 119.63548 29009 ft 479 kts 148°
2026-05-08 05:13 30.88613 119.65869 29344 ft 481 kts 149°
2026-05-08 05:13 30.85917 119.68210 29631 ft 484 kts 149°
2026-05-08 05:13 30.83201 119.70566 29890 ft 486 kts 149°
2026-05-08 05:13 30.80474 119.72931 30127 ft 489 kts 149°
2026-05-08 05:14 30.77725 119.75314 30422 ft 490 kts 149°
2026-05-08 05:14 30.75028 119.77650 30752 ft 490 kts 149°
2026-05-08 05:14 30.72268 119.80036 31085 ft 490 kts 149°
2026-05-08 05:14 30.69534 119.82395 31335 ft 491 kts 149°
2026-05-08 05:15 30.66782 119.84755 31562 ft 493 kts 149°
2026-05-08 05:15 30.64029 119.87112 31790 ft 495 kts 149°
2026-05-08 05:15 30.61247 119.89492 32092 ft 495 kts 149°
2026-05-08 05:15 30.59811 119.90723 32242 ft 495 kts 149°
2026-05-08 05:16 30.57070 119.93143 32499 ft 497 kts 148°
2026-05-08 05:16 30.53293 119.96538 32817 ft 498 kts 148°
2026-05-08 05:16 30.48201 119.99863 33188 ft 482 kts 168°
2026-05-08 05:16 30.42640 120.01096 33601 ft 461 kts 187°
2026-05-08 05:17 30.37774 120.00496 33981 ft 441 kts 204°
2026-05-08 05:17 30.33264 119.98457 34182 ft 427 kts 218°
2026-05-08 05:17 30.28959 119.95564 34592 ft 424 kts 220°
2026-05-08 05:17 30.24582 119.92593 35058 ft 422 kts 219°
2026-05-08 05:18 30.20227 119.89677 35513 ft 420 kts 220°
2026-05-08 05:18 30.15848 119.86762 35877 ft 420 kts 220°
2026-05-08 05:18 30.11066 119.83588 36239 ft 420 kts 220°
2026-05-08 05:18 30.06493 119.80559 36538 ft 420 kts 220°
2026-05-08 05:19 30.01773 119.77413 36790 ft 421 kts 220°
2026-05-08 05:19 29.97233 119.74352 37028 ft 422 kts 220°
2026-05-08 05:19 29.92611 119.71242 37287 ft 422 kts 220°
2026-05-08 05:19 29.88152 119.68247 37464 ft 424 kts 220°
2026-05-08 05:20 29.84014 119.65306 37612 ft 420 kts 224°
2026-05-08 05:20 29.79855 119.62051 37764 ft 421 kts 224°
2026-05-08 05:20 29.73944 119.57427 37991 ft 421 kts 224°
2026-05-08 05:20 29.71028 119.55151 38142 ft 420 kts 225°
2026-05-08 05:21 29.65457 119.50573 38266 ft 416 kts 229°
2026-05-08 05:21 29.59213 119.43973 38264 ft 407 kts 236°
2026-05-08 05:22 29.51378 119.34010 38271 ft 406 kts 237°
2026-05-08 05:22 29.46040 119.27219 38268 ft 406 kts 237°
2026-05-08 05:23 29.39356 119.18729 38259 ft 406 kts 237°
2026-05-08 05:23 29.32463 119.10006 38257 ft 407 kts 237°
2026-05-08 05:24 29.25564 119.01297 38256 ft 407 kts 237°
2026-05-08 05:24 29.18584 118.92529 38253 ft 407 kts 237°
2026-05-08 05:25 29.11718 118.83920 38250 ft 405 kts 237°
2026-05-08 05:25 29.04802 118.75262 38250 ft 406 kts 237°
2026-05-08 05:26 28.97892 118.66627 38249 ft 404 kts 237°
2026-05-08 05:26 28.91105 118.58166 38238 ft 405 kts 237°
2026-05-08 05:27 28.84836 118.50366 38234 ft 405 kts 237°
2026-05-08 05:27 28.78347 118.42307 38230 ft 405 kts 237°
2026-05-08 05:28 28.71649 118.33998 38229 ft 405 kts 236°
2026-05-08 05:28 28.65535 118.26436 38220 ft 406 kts 237°
2026-05-08 05:29 28.58787 118.18100 38207 ft 406 kts 236°
2026-05-08 05:29 28.52014 118.09756 38205 ft 406 kts 236°
2026-05-08 05:30 28.45239 118.01421 38205 ft 406 kts 237°
2026-05-08 05:30 28.37262 117.91801 38194 ft 408 kts 235°
2026-05-08 05:31 28.31435 117.84944 38198 ft 408 kts 235°
2026-05-08 05:31 28.24739 117.77055 38185 ft 408 kts 235°
2026-05-08 05:32 28.17843 117.68945 38187 ft 406 kts 235°
2026-05-08 05:32 28.10859 117.60739 38192 ft 408 kts 235°
2026-05-08 05:33 28.03975 117.52673 38190 ft 407 kts 235°
2026-05-08 05:33 27.96923 117.44429 38176 ft 408 kts 235°
2026-05-08 05:34 27.89915 117.36244 38191 ft 408 kts 235°
2026-05-08 05:34 27.83331 117.28572 38180 ft 411 kts 234°
2026-05-08 05:35 27.77130 117.21355 38179 ft 411 kts 234°
2026-05-08 05:35 27.71806 117.15172 38183 ft 411 kts 234°
2026-05-08 05:36 27.67838 117.10565 38172 ft 411 kts 234°
2026-05-08 05:36 27.63846 117.05937 38170 ft 411 kts 234°
2026-05-08 05:37 27.59851 117.01314 38172 ft 412 kts 234°
2026-05-08 05:37 27.55870 116.96703 38171 ft 413 kts 234°
2026-05-08 05:38 27.51861 116.92075 38171 ft 413 kts 234°
2026-05-08 05:38 27.47869 116.87416 38167 ft 413 kts 234°
2026-05-08 05:39 27.43888 116.82752 38167 ft 413 kts 234°
2026-05-08 05:39 27.39898 116.78083 38158 ft 414 kts 234°
2026-05-08 05:40 27.35895 116.73409 38155 ft 414 kts 234°
2026-05-08 05:40 27.31913 116.68764 38158 ft 413 kts 234°
2026-05-08 05:41 27.27923 116.64114 38155 ft 414 kts 234°
2026-05-08 05:41 27.23939 116.59473 38151 ft 415 kts 234°
2026-05-08 05:42 27.19935 116.54802 38149 ft 415 kts 234°
2026-05-08 05:42 27.16004 116.50040 38152 ft 414 kts 235°
2026-05-08 05:43 27.12122 116.45325 38151 ft 415 kts 235°
2026-05-08 05:43 27.08184 116.40554 38153 ft 415 kts 235°
2026-05-08 05:44 27.04281 116.35836 38153 ft 415 kts 235°
2026-05-08 05:44 27.00323 116.31056 38153 ft 416 kts 234°
2026-05-08 05:45 26.96402 116.26326 38149 ft 417 kts 234°
2026-05-08 05:45 26.92462 116.21581 38146 ft 417 kts 234°
2026-05-08 05:46 26.88521 116.16801 38147 ft 417 kts 234°
2026-05-08 05:46 26.84569 116.11990 38145 ft 417 kts 234°
2026-05-08 05:47 26.80640 116.07210 38147 ft 417 kts 234°
2026-05-08 05:47 26.76727 116.02454 38140 ft 418 kts 234°
2026-05-08 05:48 26.72782 115.97666 38137 ft 417 kts 234°
2026-05-08 05:48 26.68862 115.92915 38140 ft 417 kts 234°
2026-05-08 05:49 26.64929 115.88151 38144 ft 417 kts 234°
2026-05-08 05:49 26.60981 115.83378 38143 ft 417 kts 234°
2026-05-08 05:50 26.57065 115.78647 38142 ft 419 kts 234°
2026-05-08 05:50 26.53112 115.73876 38141 ft 418 kts 234°
2026-05-08 05:51 26.49157 115.69107 38141 ft 418 kts 234°
2026-05-08 05:51 26.45219 115.64366 38144 ft 417 kts 234°
2026-05-08 05:52 26.41273 115.59616 38148 ft 417 kts 234°
2026-05-08 05:52 26.37339 115.54893 38152 ft 418 kts 234°
2026-05-08 05:53 26.33370 115.50125 38147 ft 419 kts 234°
2026-05-08 05:53 26.29422 115.45391 38152 ft 419 kts 234°
2026-05-08 05:54 26.25432 115.40612 38152 ft 419 kts 234°
2026-05-08 05:54 26.20817 115.35091 38149 ft 419 kts 234°
2026-05-08 05:55 26.17487 115.31113 38148 ft 419 kts 233°
2026-05-08 05:55 26.13527 115.26382 38139 ft 418 kts 233°
2026-05-08 05:56 26.09565 115.21657 38138 ft 419 kts 233°
2026-05-08 05:56 26.05599 115.16932 38139 ft 419 kts 233°
2026-05-08 05:57 26.01636 115.12215 38137 ft 419 kts 233°
2026-05-08 05:57 25.97647 115.07471 38143 ft 419 kts 233°
2026-05-08 05:58 25.93675 115.02752 38146 ft 419 kts 233°
2026-05-08 05:58 25.89691 114.98023 38146 ft 419 kts 233°
2026-05-08 05:59 25.84817 114.92698 38145 ft 426 kts 226°
2026-05-08 05:59 25.80756 114.89511 38153 ft 434 kts 218°
2026-05-08 06:00 25.75251 114.86536 38139 ft 445 kts 208°
2026-05-08 06:00 25.69224 114.84621 38141 ft 454 kts 200°
2026-05-08 06:01 25.63049 114.83086 38147 ft 455 kts 200°
2026-05-08 06:01 25.56868 114.81564 38146 ft 456 kts 200°
2026-05-08 06:02 25.50660 114.80029 38142 ft 457 kts 200°
2026-05-08 06:02 25.44464 114.78497 38143 ft 456 kts 200°
2026-05-08 06:03 25.38275 114.76968 38141 ft 456 kts 200°
2026-05-08 06:03 25.32061 114.75430 38133 ft 456 kts 200°
2026-05-08 06:04 25.25861 114.73899 38132 ft 456 kts 200°
2026-05-08 06:04 25.19669 114.72372 38135 ft 456 kts 200°
2026-05-08 06:05 25.12407 114.70583 38138 ft 457 kts 200°
2026-05-08 06:05 25.07234 114.69309 38140 ft 457 kts 200°
2026-05-08 06:06 25.01025 114.67782 38140 ft 458 kts 200°
2026-05-08 06:06 24.94780 114.66247 38135 ft 460 kts 200°
2026-05-08 06:07 24.88549 114.64718 38126 ft 461 kts 200°
2026-05-08 06:07 24.82243 114.63171 38121 ft 460 kts 200°
2026-05-08 06:08 24.76020 114.61572 38115 ft 457 kts 202°
2026-05-08 06:08 24.70011 114.59388 38111 ft 452 kts 208°
2026-05-08 06:09 24.64293 114.56514 38113 ft 446 kts 215°
2026-05-08 06:09 24.59730 114.53687 38121 ft 443 kts 217°
2026-05-08 06:10 24.53473 114.49725 38129 ft 445 kts 217°
2026-05-08 06:10 24.49018 114.46910 38132 ft 445 kts 217°
2026-05-08 06:11 24.43633 114.43515 38128 ft 445 kts 217°
2026-05-08 06:11 24.38244 114.40127 38124 ft 445 kts 216°
2026-05-08 06:12 24.32867 114.36758 38122 ft 445 kts 216°
2026-05-08 06:12 24.27497 114.33395 38126 ft 446 kts 216°
2026-05-08 06:13 24.22073 114.29999 38128 ft 446 kts 216°
2026-05-08 06:13 24.15806 114.26016 38130 ft 443 kts 219°
2026-05-08 06:14 24.11049 114.21879 38130 ft 432 kts 230°
2026-05-08 06:14 24.07798 114.17853 38133 ft 423 kts 238°
2026-05-08 06:15 24.04728 114.12389 38137 ft 417 kts 248°
2026-05-08 06:15 24.03193 114.06396 38110 ft 409 kts 268°
2026-05-08 06:15 24.03225 114.03310 37692 ft 407 kts 277°
2026-05-08 06:16 24.03755 114.00308 37135 ft 404 kts 286°
2026-05-08 06:16 24.05099 113.96545 36451 ft 397 kts 296°
2026-05-08 06:16 24.05997 113.94805 36187 ft 395 kts 300°
2026-05-08 06:16 24.07614 113.92383 35773 ft 395 kts 307°
2026-05-08 06:17 24.09908 113.89439 35245 ft 392 kts 307°
2026-05-08 06:17 24.11629 113.87105 34825 ft 389 kts 304°
2026-05-08 06:17 24.13212 113.84713 34416 ft 385 kts 301°
2026-05-08 06:18 24.14659 113.82260 34019 ft 382 kts 298°
2026-05-08 06:18 24.16381 113.78912 33502 ft 379 kts 295°
2026-05-08 06:18 24.17507 113.76344 33096 ft 376 kts 292°
2026-05-08 06:18 24.18185 113.74593 32828 ft 374 kts 290°
2026-05-08 06:19 24.19103 113.71936 32429 ft 372 kts 288°
2026-05-08 06:19 24.19890 113.69233 32022 ft 371 kts 285°
2026-05-08 06:19 24.20432 113.66488 31573 ft 370 kts 276°
2026-05-08 06:19 24.20463 113.63698 31125 ft 370 kts 266°
2026-05-08 06:20 24.19692 113.60059 30517 ft 370 kts 252°
2026-05-08 06:20 24.18974 113.58366 30239 ft 370 kts 245°
2026-05-08 06:20 24.17511 113.56055 29840 ft 370 kts 234°
2026-05-08 06:20 24.15648 113.54125 29446 ft 373 kts 223°
2026-05-08 06:21 24.13417 113.52634 29083 ft 375 kts 211°
2026-05-08 06:21 24.10957 113.51684 28720 ft 379 kts 200°
2026-05-08 06:21 24.07427 113.51331 28172 ft 388 kts 183°
2026-05-08 06:21 24.05621 113.51579 27845 ft 394 kts 174°
2026-05-08 06:22 24.02974 113.52509 27315 ft 403 kts 160°
2026-05-08 06:22 24.00478 113.53977 26807 ft 406 kts 155°
2026-05-08 06:22 23.97978 113.55307 26306 ft 401 kts 165°
2026-05-08 06:22 23.95300 113.56083 25817 ft 392 kts 178°
2026-05-08 06:23 23.92603 113.56186 25350 ft 384 kts 188°
2026-05-08 06:23 23.89985 113.56003 24879 ft 382 kts 189°
2026-05-08 06:23 23.87393 113.55769 24420 ft 381 kts 189°
2026-05-08 06:23 23.84746 113.55524 23957 ft 379 kts 189°
2026-05-08 06:24 23.82116 113.55284 23508 ft 377 kts 189°
2026-05-08 06:24 23.79480 113.55048 23055 ft 376 kts 188°
2026-05-08 06:24 23.76866 113.54815 22601 ft 374 kts 188°
2026-05-08 06:24 23.74294 113.54569 22159 ft 372 kts 191°
2026-05-08 06:25 23.71782 113.54031 21726 ft 367 kts 199°
2026-05-08 06:25 23.69381 113.53122 21306 ft 362 kts 206°
2026-05-08 06:25 23.67067 113.52066 20901 ft 359 kts 207°
2026-05-08 06:25 23.64760 113.50988 20508 ft 356 kts 207°
2026-05-08 06:26 23.62477 113.49925 20118 ft 353 kts 206°
2026-05-08 06:26 23.59444 113.48625 19605 ft 350 kts 202°
2026-05-08 06:26 23.57896 113.48105 19347 ft 344 kts 199°
2026-05-08 06:26 23.55593 113.47459 18982 ft 339 kts 197°
2026-05-08 06:27 23.53299 113.46837 18607 ft 336 kts 197°
2026-05-08 06:27 23.51018 113.46221 18229 ft 334 kts 197°
2026-05-08 06:27 23.48757 113.45610 17851 ft 332 kts 197°
2026-05-08 06:27 23.46524 113.45004 17475 ft 330 kts 197°
2026-05-08 06:28 23.44321 113.44408 17103 ft 328 kts 197°
2026-05-08 06:28 23.42112 113.43809 16728 ft 326 kts 197°
2026-05-08 06:28 23.39906 113.43211 16347 ft 324 kts 197°
2026-05-08 06:28 23.37700 113.42614 15962 ft 322 kts 197°
2026-05-08 06:29 23.35526 113.42024 15590 ft 320 kts 197°
2026-05-08 06:29 23.33362 113.41438 15210 ft 319 kts 197°
2026-05-08 06:29 23.31220 113.40860 14840 ft 317 kts 197°
2026-05-08 06:29 23.29070 113.40277 14467 ft 315 kts 197°
2026-05-08 06:30 23.26971 113.39709 14102 ft 312 kts 197°
2026-05-08 06:30 23.24840 113.39133 13732 ft 310 kts 197°
2026-05-08 06:30 23.22772 113.38574 13367 ft 308 kts 197°
2026-05-08 06:30 23.20691 113.38012 13054 ft 304 kts 197°
2026-05-08 06:31 23.18652 113.37461 12816 ft 297 kts 197°
2026-05-08 06:31 23.16655 113.36922 12548 ft 292 kts 197°
2026-05-08 06:31 23.14713 113.36398 12319 ft 280 kts 198°
2026-05-08 06:31 23.12883 113.35905 12253 ft 265 kts 198°
2026-05-08 06:32 23.11115 113.35430 12144 ft 254 kts 198°
2026-05-08 06:32 23.09470 113.34985 12036 ft 246 kts 197°
2026-05-08 06:32 23.07778 113.34526 11820 ft 247 kts 197°
2026-05-08 06:32 23.06111 113.34074 11564 ft 245 kts 197°
2026-05-08 06:33 23.04451 113.33626 11278 ft 244 kts 197°
2026-05-08 06:33 23.02794 113.33179 11002 ft 243 kts 197°
2026-05-08 06:33 23.01146 113.32735 10715 ft 244 kts 197°
2026-05-08 06:33 22.99493 113.32288 10376 ft 249 kts 197°
2026-05-08 06:34 22.97800 113.31830 10051 ft 249 kts 197°
2026-05-08 06:34 22.96107 113.31374 9759 ft 248 kts 197°
2026-05-08 06:34 22.94443 113.30926 9481 ft 246 kts 197°
2026-05-08 06:34 22.92779 113.30456 9180 ft 244 kts 203°
2026-05-08 06:35 22.91419 113.29421 8792 ft 240 kts 239°
2026-05-08 06:35 22.90954 113.27756 8472 ft 236 kts 273°
2026-05-08 06:35 22.91300 113.26028 8202 ft 235 kts 286°
2026-05-08 06:35 22.91757 113.24307 7927 ft 236 kts 285°
2026-05-08 06:36 22.92208 113.22617 7636 ft 236 kts 293°
2026-05-08 06:36 22.93066 113.21077 7319 ft 245 kts 311°
2026-05-08 06:36 22.94467 113.19967 6859 ft 256 kts 339°
2026-05-08 06:36 22.96245 113.19750 6394 ft 260 kts 10°
2026-05-08 06:37 22.98376 113.20887 6080 ft 253 kts 34°
2026-05-08 06:37 22.99334 113.21558 5988 ft 247 kts 28°
2026-05-08 06:37 23.00862 113.22337 5937 ft 233 kts 20°
2026-05-08 06:37 23.02366 113.22903 5889 ft 220 kts 16°
2026-05-08 06:38 23.03805 113.23355 5742 ft 212 kts 14°
2026-05-08 06:38 23.05209 113.23757 5500 ft 205 kts 14°
2026-05-08 06:38 23.06573 113.24133 5243 ft 200 kts 13°
2026-05-08 06:38 23.07909 113.24495 4962 ft 196 kts 13°
2026-05-08 06:39 23.09649 113.24950 4642 ft 188 kts 13°
2026-05-08 06:39 23.10500 113.25172 4501 ft 184 kts 13°
2026-05-08 06:39 23.11712 113.25492 4285 ft 177 kts 13°
2026-05-08 06:39 23.12908 113.25810 4047 ft 173 kts 14°
2026-05-08 06:40 23.14045 113.26115 3798 ft 165 kts 14°
2026-05-08 06:40 23.15536 113.26517 3511 ft 164 kts 14°
2026-05-08 06:40 23.16260 113.26714 3392 ft 159 kts 14°
2026-05-08 06:40 23.17307 113.26997 3201 ft 150 kts 14°
2026-05-08 06:41 23.18291 113.27264 3086 ft 144 kts 14°
2026-05-08 06:41 23.19600 113.27620 2888 ft 144 kts 14°
2026-05-08 06:41 23.20254 113.27797 2781 ft 143 kts 14°
2026-05-08 06:41 23.21219 113.28059 2620 ft 143 kts 14°
2026-05-08 06:42 23.22189 113.28321 2458 ft 142 kts 14°
2026-05-08 06:42 23.23156 113.28583 2381 ft 142 kts 14°
2026-05-08 06:42 23.24114 113.28842 2236 ft 142 kts 14°
2026-05-08 06:42 23.25078 113.29103 2060 ft 142 kts 14°
2026-05-08 06:43 23.26044 113.29364 1879 ft 141 kts 14°
2026-05-08 06:43 23.26997 113.29622 1699 ft 141 kts 14°
2026-05-08 06:43 23.27949 113.29879 1521 ft 140 kts 14°
2026-05-08 06:43 23.28906 113.30138 1338 ft 140 kts 14°
2026-05-08 06:44 23.29808 113.30381 1163 ft 140 kts 14°
2026-05-08 06:44 23.30768 113.30640 979 ft 139 kts 15°
2026-05-08 06:44 23.31698 113.30892 803 ft 139 kts 14°
2026-05-08 06:44 23.32652 113.31140 619 ft 138 kts 14°
2026-05-08 06:45 23.33579 113.31391 473 ft 137 kts 15°
2026-05-08 06:45 23.34509 113.31651 340 ft 136 kts 15°
2026-05-08 06:45 23.35425 113.31895 163 ft 135 kts 15°
2026-05-08 06:45 23.36316 113.32142 52 ft 124 kts 14°
2026-05-08 06:46 23.36993 113.32326 52 ft 74 kts 14°
2026-05-08 06:46 23.37355 113.32423 52 ft 43 kts 14°
2026-05-08 06:46 23.37571 113.32470 52 ft 26 kts 359°
2026-05-08 06:46 23.37745 113.32447 52 ft 18 kts 348°
2026-05-08 06:47 23.37770 113.32442 52 ft 0 kts 348°
2026-05-08 06:47 23.37777 113.32440 52 ft 2 kts 348°
2026-05-08 06:47 23.37798 113.32435 52 ft 5 kts 348°
2026-05-08 06:47 23.37831 113.32428 52 ft 9 kts 348°
2026-05-08 06:48 23.37914 113.32407 52 ft 11 kts 346°
2026-05-08 06:48 23.37964 113.32363 52 ft 7 kts 263°
2026-05-08 06:48 23.37914 113.32322 52 ft 11 kts 195°
2026-05-08 06:48 23.37827 113.32298 52 ft 14 kts 193°
2026-05-08 06:49 23.37722 113.32271 52 ft 16 kts 194°
2026-05-08 06:49 23.37609 113.32240 52 ft 11 kts 194°
2026-05-08 06:49 23.37588 113.32167 52 ft 13 kts 285°
2026-05-08 06:49 23.37608 113.32072 52 ft 15 kts 283°
2026-05-08 06:50 23.37636 113.31947 52 ft 17 kts 282°
2026-05-08 06:50 23.37656 113.31842 51 ft 11 kts 259°
2026-05-08 06:50 23.37587 113.31802 52 ft 11 kts 193°
2026-05-08 06:50 23.37507 113.31780 52 ft 9 kts 193°
2026-05-08 06:51 23.37451 113.31805 51 ft 7 kts 114°
2026-05-08 06:51 23.37439 113.31853 52 ft 4 kts 103°
2026-05-08 06:51 23.37437 113.31866 52 ft 0 kts 103°
2026-05-08 06:51 23.37435 113.31873 51 ft 0 kts 103°